EST,Max TemperatureF,Mean TemperatureF,Min TemperatureF,Max Dew PointF,MeanDew PointF,Min DewpointF,Max Humidity, Mean Humidity, Min Humidity, Max Sea Level PressureIn, Mean Sea Level PressureIn, Min Sea Level PressureIn, Max VisibilityMiles, Mean VisibilityMiles, Min VisibilityMiles, Max Wind SpeedMPH, Mean Wind SpeedMPH, Max Gust SpeedMPH,PrecipitationIn, CloudCover, Events, WindDirDegrees
2012-12-1,26,24,22,24,17,3,93,72,37,30.67,30.60,30.52,10,5,1,9,7,,0.06,8,Snow,349
2012-12-2,47,36,26,47,33,24,100,96,89,30.51,30.29,30.00,8,3,0,10,4,,0.07,8,Fog-Rain,293
2012-12-3,56,45,31,45,39,31,99,79,47,30.31,30.13,29.99,10,10,4,22,9,28,0.00,3,,275
2012-12-4,57,43,30,53,38,30,100,89,81,30.32,30.20,29.94,10,9,4,13,2,17,0.00,7,,246
2012-12-5,58,44,30,54,36,14,89,65,45,30.10,29.91,29.80,10,10,6,22,11,31,0.01,6,Rain,272
2012-12-6,41,32,23,20,17,14,87,57,35,30.31,30.26,30.13,10,10,10,10,7,,0.00,3,,282
2012-12-7,42,32,23,39,28,19,96,81,61,30.29,30.17,30.04,10,9,4,7,2,,0.02,7,Rain,208
2012-12-8,41,39,37,40,38,37,100,99,93,30.04,29.96,29.86,3,1,0,9,2,,0.15,8,Fog-Rain,309
2012-12-9,46,40,34,41,34,27,100,81,45,30.31,30.16,29.93,10,8,1,12,6,,0.00,6,Rain,267
2012-12-10,46,42,38,46,41,38,100,98,85,30.16,29.73,29.50,8,2,0,15,8,22,0.37,8,Fog-Rain,15
2012-12-11,43,37,30,43,33,20,100,81,53,30.13,29.83,29.53,10,10,4,15,6,20,0.01,6,Rain,276
2012-12-12,38,32,23,23,20,19,87,67,47,30.42,30.32,30.15,10,10,10,7,4,,0.00,4,,250
2012-12-13,43,33,23,26,23,20,93,73,41,30.45,30.38,30.27,10,10,10,7,4,,0.00,2,,264
2012-12-14,46,35,24,26,23,19,89,66,34,30.25,30.14,30.03,10,10,10,13,5,18,0.00,3,,256
2012-12-15,40,32,24,26,17,9,72,53,36,30.37,30.29,30.16,10,10,10,12,7,,0.00,2,,355
2012-12-16,24,23,22,20,16,8,89,74,53,30.37,30.26,30.15,10,6,1,10,8,,0.11,8,Snow,18
2012-12-17,33,28,23,33,27,21,99,93,88,30.14,30.01,29.88,3,2,1,13,8,,0.21,8,Rain-Snow,17
2012-12-18,49,41,33,49,43,34,100,99,93,29.83,29.49,29.37,6,2,0,17,11,24,1.41,8,Fog-Rain,12
2012-12-19,41,38,35,39,36,33,100,89,71,30.03,29.66,29.41,10,8,4,18,11,28,0.09,8,Rain,322
2012-12-20,39,34,29,34,31,27,99,84,62,30.21,30.12,30.04,10,10,7,7,4,,0.00,7,Rain,12
2012-12-21,51,44,36,52,41,32,100,87,68,30.04,29.44,29.09,10,6,1,36,14,58,0.80,8,Rain,134
2012-12-22,39,33,26,32,21,12,80,62,45,29.59,29.35,29.19,10,10,10,23,12,33,0.00,5,,249
2012-12-23,38,32,25,21,15,10,69,54,37,29.82,29.76,29.61,10,10,10,17,12,26,0.00,3,,248
2012-12-24,38,32,26,21,16,12,71,54,34,30.06,29.99,29.83,10,10,10,13,7,18,0.00,5,,265
2012-12-25,32,28,23,27,21,14,89,75,62,30.22,30.08,30.01,10,9,7,10,5,,0.00,6,Snow,331
2012-12-26,36,26,17,32,20,11,89,71,49,30.32,30.22,29.99,10,9,2,16,5,30,0.06,5,Rain-Snow,25
2012-12-27,40,34,28,39,31,25,100,91,81,29.95,29.53,29.35,10,4,1,24,18,45,2.29,8,Rain-Snow,15
2012-12-28,34,30,25,25,21,18,82,69,59,29.99,29.85,29.61,10,10,10,17,11,25,0.00,4,,284
2012-12-29,30,27,24,29,23,18,95,83,69,29.98,29.75,29.43,10,5,0,18,7,25,0.18,7,Fog-Snow,348
2012-12-30,26,22,18,23,15,4,93,70,50,29.90,29.60,29.42,10,9,1,25,16,40,0.02,6,Snow,299
2012-12-31,33,26,19,22,15,5,71,61,52,29.97,29.88,29.73,10,10,10,24,13,41,0.00,5,,252